SCP
0 0 0 0 0 0 0 0 0 0 0 0 0 0 0 0 0 0 0 0 0 0 0 0 0 0 0 0 0 0 0 0 0 0 0 0 0 0 0 0 0 0 0
0 0 0 0 0 0 0 0 0 0 0 0 0 0 0 0 0 0 0 0 0 0 0 0 0 0 0 0 0 0 0 0 0 0 0 0 0 0 0 0 0 0 0
0 0 0 0 0 0 0 0 0 0 0 0 0 0 0 0 0 0 0 0 0 0 0 0 0 0 0 0 0 0 0 0 0 0 0 0 0 0 0 0 0 0 0
0 0 0 0 0 0 0 0 0 0 0 0 0 0 0 0 0 0 0 0 0 0 0 0 0 0 0 0 0 0 0 0 0 0 0 0 0 0 0 0 0 0 0
0 0 0 0 0 0 0 0 0 0 0 0 0 0 0 0 0 0 0 0 0 0 0 0 0 0 0 0 0 0 0 0 0 0 0 0 0 0 0 0 0 0 0
0 0 0 0 0 0 0 0 0 0 0 0 0 0 0 0 0 0 0 0 0 0 0 0 0 0 0 0 0 0 0 0 0 0 0 0 0 0 0 0 0 0 0
0 0 0 0 0 0 0 0 0 0 0 0 0 0 0 0 0 0 0 0 0 0 0 0 0 0 0 0 0 0 0 0 0 0 0 0 0 0 0 0 0 0 0
0 0 0 -0 -0 -0 0 0 0 0 0 0 0 0 0 0 0 0 0 0 0 0 0 0 0 0 0 0 -0 0 0 -0 0 0 0 0 0 0 0 0 0 0 0
-0 -0 -0 -0 -0 0 -0 -0 0 0 0 0 0 0 0 0 0 0 0 0 0 0 0 0 0 0 0 0 0 0 -0 -0 -0 -0 0 0 0 0 0 0 0 0 0
-0 -0 -0 -0 -0 -0 -0 -0 0 0 0 0 0 0 0 0 0 0 0 0 0 0 0 0 0 0 0 0 0 0 0 0 -0 -0 -0 0 0 0 0 0 0 0 0
-0 -0 -0 -0 -0 -0 0 0 0 0 0 0 0 0 0 0 0 0 0 0 0 0 0 0 0 0 0 0 0 0 0 0 0 0 0 0 0 0 0 0 0 0 0
-0 -0 0 -0 0 0 0 0 0 0 0 0 0 0 0 0 0 0 0 0 0 0 0 0 0 0 0 0 0 0 0 0 0 0 0 0 0 -0 -0 0 0 -0 0
0 0 0 0 0 0 0 0 0 0 0 0 0 0 0 0 0 0 0 0 0 0 0 0 0 0 0 0 0 0 0 0 0 0 0 0 0 0 0 0 0 0 0
0 0 0 0 0 0 0 0 0 0 0 0 0 0 0 0 0 0 0 0 0 0 0 0 0 0 0 0 0 0 0 0 0 0 0 0 0 0 0 0 0 0 0
0 0 0 0 0 0 0 0 0 0 0 0 0 0 0 0 0 0 0 0 0 0 0 0 0 0 0 0 0 0 0 0 0 0 0 0 0 0 0 0 0 0 0
0 0 0 0 0 0 0 0 0 0 0 0 0 0 0 0 0 0 0 0 0 0 0 0 0 0 0 0 -0 -0 -0 -0 -0 -0 -0 0 0 0 0 0 0 0 0
0 0 0 0 0 0 0 0 0 0 0 0 0 0 0 0 0 0 0 0 0 0 0 0 0 -0 -0 -0 -0 -0 -0 0 0 0 0 0 0 0 0 0 0 0 0
0 0 0 0 0 0 0 0 0 0 0 0 0 0 0 0 0 0 0 0 0 0 0 0 0 0 0 -0 -0 -0 0 0 -0 0 0 0 0 0 0 0 0 0 0
0 0 0 0 0 0 0 0 0 0 0 0 0 0 0 0 0 0 0 0 0 0 0 0 0 0 0 0 0 0 -0 -0 0 0 0 0 0 0 0 0 0 0 0
0 0 0 0 0 0 0 0 0 0 0 0 0 0 0 0 0 0 0 0 0 0 0 0 0 0 0 0 0 0 0 0 0 0 0 0 0 0 0 0 0 0 0
0 0 0 0 0 0 0 0 0 0 0 0 0 0 0 0 0 0 0 0 0 0 0 0 0 0 0 0 0 0 0 0 0 0 0 0 0 0 0 0 0 0 0
0 0 0 0 0 0 0 0 0 0 0 0 0 0 0 0 0 0 0 0 0 0 0 0 0 0 0 0 0 0 0 0 0 0 0 0 0 0 0 0 0 0 0
0 0 0 0 0 0 0 0 0 0 0 0 0 0 0 0 0 0 0 0 0 0 0 0 0 0 0 0 0 0 0 0 0 0 0 0 0 0 0 0 0 0 0
0 0 0 0 0 0 0 0 0 0 0 0 0 0 0 0 0 0 0 0 0 0 0 0 0 0 0 0 0 0 0 0 0 0 0 0 0 0 0 0 0 0 0
0 0 0 0 0 0 0 0 0 0 0 0 0 0 0 0 0 0 0 0 0 0 0 0 0 0 0 0 0 0 0 0 0 0 0 0 0 0 0 0 0 0 0
0 0 0 0 0 0 0 0 0 0 0 0 0 0 0 0 0 0 0 0 0 0 0 0 0 0 0 0 0 0 0 0 0 0 0 0 0 0 0 0 0 0 0
Wind_Speed_500mb
34 42 47 44 33 28 27 35 34 40 47 56 56 52 46 37 35 33 35 38 38 42 41 43 44 39 43 45 42 45 52 50 59 64 42 52 54 50 69 47 35 58 56
37 45 49 41 30 29 31 33 37 42 46 54 53 47 44 35 37 35 39 40 45 43 45 47 47 47 49 47 47 51 55 55 54 53 49 62 41 46 62 68 40 42 47
39 46 48 37 31 31 32 36 42 44 47 53 49 46 40 37 38 37 40 35 35 39 45 47 47 50 50 47 49 53 48 52 51 51 49 47 54 48 46 53 59 46 50
37 45 43 36 35 33 34 38 41 43 44 51 47 46 42 40 37 38 39 40 44 46 45 48 50 48 44 45 47 49 58 51 47 54 46 46 45 45 44 40 45 48 45
43 41 38 34 36 31 35 38 43 49 50 50 50 45 41 35 33 38 40 46 50 53 48 48 45 43 47 49 49 47 44 57 50 52 52 40 46 43 46 42 40 45 44
42 40 34 34 38 35 35 39 46 49 50 48 46 43 42 41 41 45 49 50 54 57 55 50 47 42 48 47 48 53 61 56 52 54 51 47 46 47 40 42 37 38 49
36 39 42 37 40 36 34 40 45 44 47 42 40 38 39 39 46 54 52 52 55 56 52 49 49 42 42 39 37 38 40 55 64 60 54 53 52 44 45 43 40 39 46
34 40 42 36 39 39 40 43 41 30 44 38 37 36 34 41 54 57 53 51 48 48 42 36 33 35 35 33 33 37 38 38 47 60 67 64 55 53 43 41 37 39 41
41 45 38 39 38 41 43 45 28 37 33 32 33 34 36 40 51 63 59 54 52 43 38 28 22 23 26 21 26 36 36 40 41 47 53 57 58 59 60 54 51 37 40
41 41 37 39 43 47 51 47 41 34 33 32 32 29 33 41 47 58 56 56 57 44 35 31 25 22 17 18 29 37 45 49 50 53 56 59 61 66 61 59 56 51 39
29 29 36 38 39 44 46 50 50 45 40 38 37 34 34 41 45 53 57 59 55 48 42 33 28 21 22 29 36 43 50 55 59 60 66 70 65 60 60 61 61 60 39
33 31 34 36 38 40 44 48 55 57 53 48 45 41 40 42 46 44 52 56 51 48 44 36 29 26 29 33 38 46 51 43 31 12 10 22 35 48 54 54 56 55 49
36 36 37 34 36 40 42 47 53 59 60 60 59 56 52 49 43 43 42 49 55 46 43 39 34 29 29 28 35 43 53 56 59 48 35 35 31 38 44 55 56 53 48
32 36 36 38 36 36 39 42 46 53 55 57 58 58 58 58 55 46 44 44 45 51 45 39 36 29 29 32 39 43 45 48 51 49 35 44 40 48 46 45 52 53 44
36 38 39 38 40 40 36 36 37 37 42 45 46 48 54 58 52 40 37 39 38 37 39 39 41 38 36 39 39 39 38 40 47 42 33 29 32 40 40 41 39 33 28
36 40 41 42 42 43 44 38 33 31 32 34 34 39 40 41 47 40 32 30 26 23 33 35 34 37 43 45 44 32 29 30 33 32 27 27 25 20 23 20 18 17 18
37 39 43 46 47 49 50 52 53 47 45 44 43 41 40 41 43 44 42 32 29 24 27 34 38 39 37 33 33 32 32 26 21 21 21 16 13 8 7 2 6 8 12
41 44 46 48 49 50 51 52 54 56 57 58 55 53 49 48 47 45 43 41 44 45 44 42 42 41 39 37 35 33 30 28 25 21 19 18 16 12 10 12 10 8 9
49 48 48 50 53 54 53 53 53 56 58 59 59 57 56 57 56 55 55 57 52 46 43 41 41 42 41 40 38 34 30 29 29 26 24 22 18 18 15 15 17 18 19
51 53 53 54 56 57 58 57 56 56 57 59 62 63 63 63 65 65 63 60 57 55 51 47 42 39 39 40 39 38 37 33 29 26 27 27 27 26 29 26 30 31 29
51 52 54 55 55 57 57 55 55 57 57 56 56 61 62 62 63 62 62 60 59 56 56 53 51 48 46 41 38 40 40 37 35 34 32 30 30 32 36 36 33 36 27
47 48 50 51 53 54 54 55 58 58 57 58 61 63 64 63 63 63 61 61 58 55 52 52 50 48 48 48 48 45 41 41 41 39 37 35 34 32 32 37 43 42 40
42 44 47 48 50 53 56 58 59 60 60 60 62 62 63 63 62 62 61 62 61 59 55 52 51 48 46 45 45 44 45 43 43 41 42 41 38 37 35 33 32 41 47
39 42 44 47 50 53 55 57 59 61 62 62 63 62 62 62 62 62 62 62 62 60 57 54 52 50 50 47 44 43 43 46 43 42 37 38 40 37 36 35 33 30 31
36 40 44 47 50 52 55 58 60 62 63 64 65 65 65 64 63 64 65 66 66 64 61 59 55 53 52 51 46 44 46 43 41 41 39 36 33 33 33 32 31 31 29
36 39 43 47 50 54 57 59 61 63 65 66 67 69 70 69 69 68 69 71 72 70 68 65 61 59 57 54 52 51 47 44 41 36 38 38 31 29 31 33 31 30 31
Wind_Direction_500mb
330 336 336 332 328 323 326 326 336 332 328 327 331 331 329 320 310 303 298 298 296 295 288 287 281 275 272 272 268 264 263 261 262 260 265 261 254 263 249 236 247 235 239
326 334 335 338 333 339 337 330 329 326 327 331 334 331 330 326 323 315 304 296 297 293 291 289 280 278 277 274 272 271 265 260 262 265 261 266 261 259 257 245 259 243 244
323 332 334 339 336 331 331 327 325 324 331 331 333 329 327 323 321 320 317 311 309 303 300 295 288 284 280 276 269 265 262 266 260 261 268 264 261 261 264 259 255 253 250
325 332 336 341 332 326 327 332 343 336 323 334 335 334 329 321 319 316 313 308 305 301 304 297 286 282 276 280 274 269 261 256 261 261 261 262 260 255 254 259 251 247 249
327 338 338 337 330 327 324 331 340 339 341 339 342 342 341 337 331 325 315 310 309 307 303 300 287 283 278 279 273 271 265 258 254 260 260 257 259 252 251 254 256 245 244
337 341 340 332 334 323 325 330 330 332 336 343 350 350 351 357 353 345 333 318 315 310 305 300 299 289 291 286 273 268 261 257 254 253 254 251 253 247 249 248 248 242 240
342 347 348 339 337 335 328 328 330 333 333 343 350 354 360 6 357 345 333 321 319 318 316 305 294 292 300 292 285 280 273 253 250 252 253 249 248 245 250 251 245 244 237
351 357 1 354 349 350 340 332 336 330 338 346 352 1 9 10 2 354 341 330 331 334 323 311 296 285 294 290 281 279 271 262 250 247 247 249 245 242 239 241 242 245 241
355 355 2 5 359 358 2 4 1 338 351 353 0 2 4 7 1 358 354 354 351 344 337 330 311 300 300 287 293 294 287 278 271 262 253 252 249 244 249 245 244 247 239
350 354 3 3 8 15 13 6 7 7 6 4 11 11 5 358 2 5 1 2 360 353 352 350 340 323 305 297 295 296 290 285 281 271 261 254 251 247 244 236 240 231 237
340 358 2 8 11 13 12 19 19 18 17 15 13 14 9 5 10 13 10 7 360 2 354 350 345 334 313 309 305 299 294 293 288 274 259 252 245 235 228 226 223 209 230
24 16 13 14 15 14 17 19 22 24 25 20 15 12 8 6 11 8 6 13 6 6 2 356 348 340 333 329 325 340 358 23 29 37 211 212 207 213 214 213 206 198 218
17 20 21 20 24 17 19 20 21 23 23 21 18 14 9 6 1 4 7 8 16 10 7 10 3 7 6 14 8 10 17 21 31 69 88 130 164 173 177 182 190 197 185
17 21 24 24 26 23 22 23 23 20 18 17 16 15 13 10 5 359 357 358 10 17 20 21 17 34 33 20 11 14 18 24 25 37 66 69 119 127 143 158 163 175 172
26 27 28 26 26 30 31 23 21 21 18 14 13 14 14 13 9 1 355 355 356 6 23 26 33 32 28 14 11 16 22 28 30 30 45 58 88 98 111 126 138 146 154
31 30 29 30 31 31 33 37 32 26 21 20 15 11 17 17 16 14 8 5 3 351 356 16 19 20 24 24 26 20 16 20 23 28 34 48 55 79 115 118 141 161 175
36 37 36 37 34 34 35 33 33 44 41 34 30 25 20 17 17 20 21 21 19 12 14 12 6 2 360 360 5 10 13 11 3 358 11 19 24 17 31 124 184 188 201
44 43 41 38 36 36 34 33 33 32 31 32 34 32 30 29 26 23 22 23 26 27 24 15 8 3 359 354 347 343 342 345 347 338 334 336 338 334 313 296 290 273 271
46 44 42 40 39 37 34 33 31 29 28 26 25 27 25 27 25 23 25 27 24 19 12 6 4 1 360 356 351 345 336 323 315 313 312 306 301 290 296 284 281 268 268
49 46 44 41 38 35 32 29 27 25 23 22 21 19 19 21 21 20 19 18 16 13 10 8 3 353 348 348 351 350 348 343 332 316 292 289 279 280 274 279 262 257 259
45 41 38 35 31 28 26 22 20 19 18 17 14 14 15 15 13 14 14 12 9 4 2 1 359 357 356 352 342 339 339 341 341 337 329 313 293 275 265 264 269 270 267
38 35 31 29 26 23 20 18 16 13 11 9 10 11 12 12 9 8 6 4 4 2 358 355 352 351 351 350 349 346 342 333 328 328 330 328 322 311 295 273 261 258 259
32 29 26 23 20 18 17 14 12 8 6 5 4 3 4 5 3 1 359 358 357 355 354 351 349 346 343 341 340 339 339 336 332 323 315 315 320 322 315 304 288 267 256
26 22 20 17 16 14 11 10 8 5 2 360 359 359 357 356 356 356 355 355 354 353 352 349 345 341 339 337 332 329 327 324 325 327 319 309 308 312 315 311 304 296 281
17 14 12 10 8 6 5 4 2 359 358 357 356 355 354 352 350 352 353 354 352 350 350 348 345 341 337 335 333 326 322 322 319 319 323 317 303 302 306 311 307 300 296
7 5 3 1 360 358 357 356 355 354 353 352 351 351 350 349 350 349 350 351 349 348 348 346 344 342 339 336 333 330 327 322 318 314 317 322 314 301 302 305 310 308 300
Wind_Speed_850mb
34 42 47 44 33 28 27 35 34 40 47 56 56 52 46 37 35 33 35 38 38 42 41 43 44 39 43 45 42 45 52 50 59 64 42 52 54 50 69 47 35 58 56
37 45 49 41 30 29 31 33 37 42 46 54 53 47 44 35 37 35 39 40 45 43 45 47 47 47 49 47 47 51 55 55 54 53 49 62 41 46 62 68 40 42 47
39 46 48 37 31 31 32 36 42 44 47 53 49 46 40 37 38 37 40 35 35 39 45 47 47 50 50 47 49 53 48 52 51 51 49 47 54 48 46 53 59 46 50
37 45 43 36 35 33 34 38 41 43 44 51 47 46 42 40 37 38 39 40 44 46 45 48 50 48 44 45 47 49 58 51 47 54 46 46 45 45 44 40 45 48 45
43 41 38 34 36 31 35 38 43 49 50 50 50 45 41 35 33 38 40 46 50 53 48 48 45 43 47 49 49 47 44 57 50 52 52 40 46 43 46 42 40 45 44
42 40 34 34 38 35 35 39 46 49 50 48 46 43 42 41 41 45 49 50 54 57 55 50 47 42 48 47 48 53 61 56 52 54 51 47 46 47 40 42 37 38 49
36 39 42 37 40 36 34 40 45 44 47 42 40 38 39 39 46 54 52 52 55 56 52 49 49 42 42 39 37 38 40 55 64 60 54 53 52 44 45 43 40 39 46
34 40 42 36 39 39 40 43 41 30 44 38 37 36 34 41 54 57 53 51 48 48 42 36 33 35 35 33 33 37 38 38 47 60 67 64 55 53 43 41 37 39 41
41 45 38 39 38 41 43 45 28 37 33 32 33 34 36 40 51 63 59 54 52 43 38 28 22 23 26 21 26 36 36 40 41 47 53 57 58 59 60 54 51 37 40
41 41 37 39 43 47 51 47 41 34 33 32 32 29 33 41 47 58 56 56 57 44 35 31 25 22 17 18 29 37 45 49 50 53 56 59 61 66 61 59 56 51 39
29 29 36 38 39 44 46 50 50 45 40 38 37 34 34 41 45 53 57 59 55 48 42 33 28 21 22 29 36 43 50 55 59 60 66 70 65 60 60 61 61 60 39
33 31 34 36 38 40 44 48 55 57 53 48 45 41 40 42 46 44 52 56 51 48 44 36 29 26 29 33 38 46 51 43 31 12 10 22 35 48 54 54 56 55 49
36 36 37 34 36 40 42 47 53 59 60 60 59 56 52 49 43 43 42 49 55 46 43 39 34 29 29 28 35 43 53 56 59 48 35 35 31 38 44 55 56 53 48
32 36 36 38 36 36 39 42 46 53 55 57 58 58 58 58 55 46 44 44 45 51 45 39 36 29 29 32 39 43 45 48 51 49 35 44 40 48 46 45 52 53 44
36 38 39 38 40 40 36 36 37 37 42 45 46 48 54 58 52 40 37 39 38 37 39 39 41 38 36 39 39 39 38 40 47 42 33 29 32 40 40 41 39 33 28
36 40 41 42 42 43 44 38 33 31 32 34 34 39 40 41 47 40 32 30 26 23 33 35 34 37 43 45 44 32 29 30 33 32 27 27 25 20 23 20 18 17 18
37 39 43 46 47 49 50 52 53 47 45 44 43 41 40 41 43 44 42 32 29 24 27 34 38 39 37 33 33 32 32 26 21 21 21 16 13 8 7 2 6 8 12
41 44 46 48 49 50 51 52 54 56 57 58 55 53 49 48 47 45 43 41 44 45 44 42 42 41 39 37 35 33 30 28 25 21 19 18 16 12 10 12 10 8 9
49 48 48 50 53 54 53 53 53 56 58 59 59 57 56 57 56 55 55 57 52 46 43 41 41 42 41 40 38 34 30 29 29 26 24 22 18 18 15 15 17 18 19
51 53 53 54 56 57 58 57 56 56 57 59 62 63 63 63 65 65 63 60 57 55 51 47 42 39 39 40 39 38 37 33 29 26 27 27 27 26 29 26 30 31 29
51 52 54 55 55 57 57 55 55 57 57 56 56 61 62 62 63 62 62 60 59 56 56 53 51 48 46 41 38 40 40 37 35 34 32 30 30 32 36 36 33 36 27
47 48 50 51 53 54 54 55 58 58 57 58 61 63 64 63 63 63 61 61 58 55 52 52 50 48 48 48 48 45 41 41 41 39 37 35 34 32 32 37 43 42 40
42 44 47 48 50 53 56 58 59 60 60 60 62 62 63 63 62 62 61 62 61 59 55 52 51 48 46 45 45 44 45 43 43 41 42 41 38 37 35 33 32 41 47
39 42 44 47 50 53 55 57 59 61 62 62 63 62 62 62 62 62 62 62 62 60 57 54 52 50 50 47 44 43 43 46 43 42 37 38 40 37 36 35 33 30 31
36 40 44 47 50 52 55 58 60 62 63 64 65 65 65 64 63 64 65 66 66 64 61 59 55 53 52 51 46 44 46 43 41 41 39 36 33 33 33 32 31 31 29
36 39 43 47 50 54 57 59 61 63 65 66 67 69 70 69 69 68 69 71 72 70 68 65 61 59 57 54 52 51 47 44 41 36 38 38 31 29 31 33 31 30 31
Wind_Direction_850mb
330 336 336 332 328 323 326 326 336 332 328 327 331 331 329 320 310 303 298 298 296 295 288 287 281 275 272 272 268 264 263 261 262 260 265 261 254 263 249 236 247 235 239
326 334 335 338 333 339 337 330 329 326 327 331 334 331 330 326 323 315 304 296 297 293 291 289 280 278 277 274 272 271 265 260 262 265 261 266 261 259 257 245 259 243 244
323 332 334 339 336 331 331 327 325 324 331 331 333 329 327 323 321 320 317 311 309 303 300 295 288 284 280 276 269 265 262 266 260 261 268 264 261 261 264 259 255 253 250
325 332 336 341 332 326 327 332 343 336 323 334 335 334 329 321 319 316 313 308 305 301 304 297 286 282 276 280 274 269 261 256 261 261 261 262 260 255 254 259 251 247 249
327 338 338 337 330 327 324 331 340 339 341 339 342 342 341 337 331 325 315 310 309 307 303 300 287 283 278 279 273 271 265 258 254 260 260 257 259 252 251 254 256 245 244
337 341 340 332 334 323 325 330 330 332 336 343 350 350 351 357 353 345 333 318 315 310 305 300 299 289 291 286 273 268 261 257 254 253 254 251 253 247 249 248 248 242 240
342 347 348 339 337 335 328 328 330 333 333 343 350 354 360 6 357 345 333 321 319 318 316 305 294 292 300 292 285 280 273 253 250 252 253 249 248 245 250 251 245 244 237
351 357 1 354 349 350 340 332 336 330 338 346 352 1 9 10 2 354 341 330 331 334 323 311 296 285 294 290 281 279 271 262 250 247 247 249 245 242 239 241 242 245 241
355 355 2 5 359 358 2 4 1 338 351 353 0 2 4 7 1 358 354 354 351 344 337 330 311 300 300 287 293 294 287 278 271 262 253 252 249 244 249 245 244 247 239
350 354 3 3 8 15 13 6 7 7 6 4 11 11 5 358 2 5 1 2 360 353 352 350 340 323 305 297 295 296 290 285 281 271 261 254 251 247 244 236 240 231 237
340 358 2 8 11 13 12 19 19 18 17 15 13 14 9 5 10 13 10 7 360 2 354 350 345 334 313 309 305 299 294 293 288 274 259 252 245 235 228 226 223 209 230
24 16 13 14 15 14 17 19 22 24 25 20 15 12 8 6 11 8 6 13 6 6 2 356 348 340 333 329 325 340 358 23 29 37 211 212 207 213 214 213 206 198 218
17 20 21 20 24 17 19 20 21 23 23 21 18 14 9 6 1 4 7 8 16 10 7 10 3 7 6 14 8 10 17 21 31 69 88 130 164 173 177 182 190 197 185
17 21 24 24 26 23 22 23 23 20 18 17 16 15 13 10 5 359 357 358 10 17 20 21 17 34 33 20 11 14 18 24 25 37 66 69 119 127 143 158 163 175 172
26 27 28 26 26 30 31 23 21 21 18 14 13 14 14 13 9 1 355 355 356 6 23 26 33 32 28 14 11 16 22 28 30 30 45 58 88 98 111 126 138 146 154
31 30 29 30 31 31 33 37 32 26 21 20 15 11 17 17 16 14 8 5 3 351 356 16 19 20 24 24 26 20 16 20 23 28 34 48 55 79 115 118 141 161 175
36 37 36 37 34 34 35 33 33 44 41 34 30 25 20 17 17 20 21 21 19 12 14 12 6 2 360 360 5 10 13 11 3 358 11 19 24 17 31 124 184 188 201
44 43 41 38 36 36 34 33 33 32 31 32 34 32 30 29 26 23 22 23 26 27 24 15 8 3 359 354 347 343 342 345 347 338 334 336 338 334 313 296 290 273 271
46 44 42 40 39 37 34 33 31 29 28 26 25 27 25 27 25 23 25 27 24 19 12 6 4 1 360 356 351 345 336 323 315 313 312 306 301 290 296 284 281 268 268
49 46 44 41 38 35 32 29 27 25 23 22 21 19 19 21 21 20 19 18 16 13 10 8 3 353 348 348 351 350 348 343 332 316 292 289 279 280 274 279 262 257 259
45 41 38 35 31 28 26 22 20 19 18 17 14 14 15 15 13 14 14 12 9 4 2 1 359 357 356 352 342 339 339 341 341 337 329 313 293 275 265 264 269 270 267
38 35 31 29 26 23 20 18 16 13 11 9 10 11 12 12 9 8 6 4 4 2 358 355 352 351 351 350 349 346 342 333 328 328 330 328 322 311 295 273 261 258 259
32 29 26 23 20 18 17 14 12 8 6 5 4 3 4 5 3 1 359 358 357 355 354 351 349 346 343 341 340 339 339 336 332 323 315 315 320 322 315 304 288 267 256
26 22 20 17 16 14 11 10 8 5 2 360 359 359 357 356 356 356 355 355 354 353 352 349 345 341 339 337 332 329 327 324 325 327 319 309 308 312 315 311 304 296 281
17 14 12 10 8 6 5 4 2 359 358 357 356 355 354 352 350 352 353 354 352 350 350 348 345 341 337 335 333 326 322 322 319 319 323 317 303 302 306 311 307 300 296
7 5 3 1 360 358 357 356 355 354 353 352 351 351 350 349 350 349 350 351 349 348 348 346 344 342 339 336 333 330 327 322 318 314 317 322 314 301 302 305 310 308 300